Du Bois, PA

1:21 PM EST on December 05, 2019 (GMT -0500)
Du Bois-Jefferson County

Weather History for KDUJ - October, 2019

Change the Weather History Date:

Monday, October 28, 2019

  Actual Average Record
Temperature  
Mean Temperature 54 °F 46 °F  
Max Temperature 66 °F 55 °F 75 °F (1971)
Min Temperature 41 °F 37 °F 19 °F (1976)
Degree Days  
Heating Degree Days 12 19  
Month to date heating degree days 373 435  
Since 1 July heating degree days 476 681  
Cooling Degree Days 0 0  
Month to date cooling degree days 23 0  
Year to date cooling degree days 430 360  
Growing Degree Days 4 (Base 50)    
Moisture  
Dew Point 42 °F    
Average Humidity 80    
Maximum Humidity 100    
Minimum Humidity 40    
Precipitation  
Precipitation 0.00 in 0.11 in 1.55 in (2015)
Month to date precipitation 3.72 2.83  
Year to date precipitation 40.12 36.07  
Sea Level Pressure  
Sea Level Pressure 30.13 in    
Wind  
Wind Speed 4 mph ()    
Max Wind Speed 13 mph    
Max Gust Speed 18 mph    
Visibility 6.5 miles    
Events Fog    
T = Trace of Precipitation, MM = Missing Value Source: Averaged Metar Reports

Daily Weather History Graph

Daily Weather History Graph

Search for Another Location

Airport or City:

Astronomy

Oct. 28, 2019 Rise Set
Actual Time 7:41 AM EDT 6:16 PM EDT
Civil Twilight 7:13 AM EDT 6:44 PM EDT
Nautical Twilight 6:40 AM EDT 7:17 PM EDT
Astronomical Twilight 6:08 AM EDT 7:49 PM EDT
Moon 8:00 AM EDT (10/28) 7:00 PM EDT (10/28)
Length of Visible Light 11h 31m
Length of Day
10h 34m
New Moon, 0% of the Moon is Illuminated
Oct 28
New Moon
Nov 4
First Quarter
Nov 12
Full
Nov 19
Last Quarter
Nov 26
New

Hourly Weather History & Observations

Time (EDT) Temp. Windchill Dew Point Humidity Pressure Visibility Wind Dir Wind Speed Gust Speed Precip Events Conditions
12:53 AM 50.0 °F - 44.1 °F 80% 30.07 in 10.0 mi West 8.1 mph - N/A   Overcast
1:22 AM 48.0 °F - 43.0 °F 83% 30.07 in 10.0 mi West 6.9 mph - N/A   Scattered Clouds
1:53 AM 48.0 °F - 43.0 °F 83% 30.08 in 10.0 mi West 4.6 mph - N/A   Clear
2:53 AM 43.0 °F 41.3 °F 41.0 °F 93% 30.10 in 10.0 mi SW 3.5 mph - N/A   Clear
3:53 AM 45.0 °F 42.6 °F 43.0 °F 93% 30.11 in 10.0 mi SW 4.6 mph - N/A   Overcast
4:42 AM 44.1 °F 42.5 °F 42.1 °F 93% 30.10 in 9.0 mi SW 3.5 mph - N/A   Overcast
4:53 AM 44.1 °F 42.5 °F 42.1 °F 93% 30.12 in 10.0 mi WSW 3.5 mph - N/A   Mostly Cloudy
5:00 AM 43.0 °F 40.3 °F 41.0 °F 93% 30.10 in 10.0 mi WSW 4.6 mph - N/A   Scattered Clouds
5:32 AM 43.0 °F 41.3 °F 41.0 °F 93% 30.11 in 1.8 mi WSW 3.5 mph - N/A   Mostly Cloudy
5:39 AM 43.0 °F 41.3 °F 42.1 °F 97% 30.11 in 4.0 mi SW 3.5 mph - N/A   Mostly Cloudy
5:53 AM 44.1 °F - 42.1 °F 93% 30.12 in 8.0 mi Calm Calm - N/A   Overcast
6:13 AM 45.0 °F - 43.0 °F 93% 30.11 in 8.0 mi Calm Calm - N/A   Scattered Clouds
6:30 AM 43.0 °F - 41.0 °F 93% 30.11 in 1.8 mi Calm Calm - N/A   Clear
6:46 AM 41.0 °F 39.0 °F 39.9 °F 96% 30.12 in 0.5 mi SW 3.5 mph - N/A Fog Fog
6:53 AM 44.1 °F 42.5 °F 42.1 °F 93% 30.14 in 0.5 mi WSW 3.5 mph - N/A Fog Fog
7:09 AM 41.0 °F 39.0 °F 39.9 °F 96% 30.13 in 0.2 mi WSW 3.5 mph - N/A Fog Fog
7:13 AM 42.1 °F 40.2 °F 39.9 °F 92% 30.13 in 0.5 mi SW 3.5 mph - N/A Fog Fog
7:51 AM 42.8 °F 40.1 °F 42.8 °F 100% 30.14 in 0.2 mi WSW 4.6 mph - N/A Fog Fog
8:53 AM 45.0 °F - 44.1 °F 97% 30.17 in 0.2 mi Calm Calm - N/A Fog Fog
9:53 AM 45.0 °F 43.5 °F 44.1 °F 97% 30.19 in 0.2 mi South 3.5 mph - N/A Fog Fog
10:53 AM 46.0 °F 43.9 °F 45.0 °F 96% 30.19 in 0.2 mi ESE 4.6 mph - N/A Fog Fog
11:02 AM 46.0 °F 43.9 °F 45.0 °F 96% 30.17 in 0.5 mi East 4.6 mph - N/A Fog Fog
11:13 AM 46.9 °F - 45.0 °F 93% 30.17 in 1.2 mi SE 5.8 mph - N/A   Overcast
11:19 AM 46.9 °F - 45.0 °F 93% 30.17 in 3.0 mi Calm Calm - N/A   Overcast
11:53 AM 50.0 °F - 46.0 °F 86% 30.18 in 8.0 mi Calm Calm - N/A   Overcast
12:11 PM 52.0 °F - 46.0 °F 80% 30.16 in 10.0 mi Variable 3.5 mph - N/A   Scattered Clouds
12:53 PM 55.9 °F - 46.0 °F 69% 30.15 in 10.0 mi Variable 3.5 mph - N/A   Clear
1:53 PM 60.1 °F - 41.0 °F 49% 30.13 in 10.0 mi Calm Calm - N/A   Clear
2:53 PM 64.0 °F - 41.0 °F 43% 30.12 in 10.0 mi Calm Calm - N/A   Clear
3:53 PM 66.0 °F - 41.0 °F 40% 30.10 in 10.0 mi Variable 4.6 mph - N/A   Clear
4:53 PM 64.9 °F - 42.1 °F 43% 30.10 in 10.0 mi ESE 6.9 mph - N/A   Clear
5:53 PM 62.1 °F - 39.9 °F 44% 30.11 in 10.0 mi East 4.6 mph - N/A   Clear
6:53 PM 60.1 °F - 42.1 °F 51% 30.12 in 10.0 mi SE 8.1 mph - N/A   Clear
7:53 PM 55.9 °F - 42.1 °F 60% 30.13 in 10.0 mi ESE 5.8 mph - N/A   Clear
8:53 PM 55.0 °F - 41.0 °F 59% 30.12 in 10.0 mi ESE 6.9 mph - N/A   Clear
9:53 PM 54.0 °F - 41.0 °F 62% 30.14 in 10.0 mi SE 9.2 mph - N/A   Clear
10:53 PM 54.0 °F - 42.1 °F 64% 30.14 in 10.0 mi SE 9.2 mph - N/A   Clear
11:53 PM 54.0 °F - 42.1 °F 64% 30.14 in 10.0 mi SE 9.2 mph - N/A   Clear